Regional Weather Roundup
Issued by NWS Northern Indiana

Home | Current Version | Previous Version | Text Only | Print | Product List | Glossary On
Versions: 1 2 3 4 5 6 7 8 9 10 11 12 13 14 15 16 17 18 19 20 21 22 23 24 25 26 27 28 29 30 31 32 33 34 35 36 37 38 39 40 41 42 43 44 45 46 47 48 49 50
000
ASUS43 KIWX 210010
RWRIWX

KIWX WEATHER ROUNDUP
NATIONAL WEATHER SERVICE NORTHERN INDIANA
700 PM EST SAT DEC 20 2014

NOTE: "FAIR" INDICATES FEW OR NO CLOUDS BELOW 12,000 FEET WITH NO
SIGNIFICANT WEATHER AND/OR OBSTRUCTIONS TO VISIBILITY.

* THESE STATIONS ARE NOT UNDER NWS QUALITY CONTROL. THEY ALSO MAY NOT
  REPORT WEATHER SUCH AS PRECIPITATION OR FOG.

INZ001>027-210100-
NORTHERN INDIANA

CITY           SKY/WX    TMP DP  RH WIND       PRES   REMARKS
GARY*          CLOUDY    34  23  64 CALM      30.28R
VALPARAISO     CLOUDY    31  25  78 CALM      30.27F
6HR MIN TEMP:  31; 6HR MAX TEMP:  32;

MICHIGAN CITY* CLOUDY    32  23  69 CALM      30.29R
LAPORTE*       CLOUDY    32  28  85 CALM      30.28S
6HR MIN TEMP:  32; 6HR MAX TEMP:  35;

KNOX*          CLOUDY    31  24  73 CALM      30.28R
6HR MIN TEMP:   9; 6HR MAX TEMP:  81;

SOUTH BEND     CLOUDY    33  25  72 SW5       30.28R WCI  29
6HR MIN TEMP:  32; 6HR MAX TEMP:  33;

GOSHEN         CLOUDY    31  28  89 CALM      30.27R FOG
6HR MIN TEMP:  31; 6HR MAX TEMP:  32; 6HR PCP: TRACE;

MONTICELLO*    CLOUDY    31  28  87 CALM      30.28R
6HR MIN TEMP:  31; 6HR MAX TEMP:  32;

LOGANSPORT*    CLOUDY    30  28  93 CALM      30.30R
ROCHESTER*     CLOUDY    32  30  93 CALM      30.29R
WARSAW*        CLOUDY    32  27  80 W3        30.28R
ANGOLA*        CLOUDY    28  27  93 CALM      30.26S
FORT WAYNE     CLOUDY    32  25  75 W3        30.28S
6HR MIN TEMP:  32; 6HR MAX TEMP:  33; 6HR PCP: TRACE;

HUNTINGTON*    CLOUDY    30  27  86 CALM      30.28R
6HR MIN TEMP:  30; 6HR MAX TEMP:  32;

PERU/GRISSOM   CLOUDY    31  31 100 CALM      30.28R
6HR MIN TEMP:  30; 6HR MAX TEMP:  32;

MARION*        CLOUDY    30  27  88 CALM      30.29R
6HR MIN TEMP:  22; 6HR MAX TEMP:  50;


$$
INZ028>050-210100-
CENTRAL INDIANA

CITY           SKY/WX    TMP DP  RH WIND       PRES   REMARKS
LAFAYETTE      CLOUDY    30  25  81 SE5       30.29R WCI  25
6HR MIN TEMP:  30; 6HR MAX TEMP:  33;

KOKOMO*        CLOUDY    32  27  80 CALM      30.29R
6HR MIN TEMP:  30; 6HR MAX TEMP:  34;

MUNCIE*        CLOUDY    31  23  72 SW3       30.28R
6HR MIN TEMP:  31; 6HR MAX TEMP:  32;

INDIANAPOLIS   MOCLDY    30  23  75 CALM      30.28R
6HR MIN TEMP:  30; 6HR MAX TEMP:  32;


$$
MIZ043>046-050>051-056>058-064>065-071>073-077>080-210100-
SOUTHWEST LOWER MICHIGAN

CITY           SKY/WX    TMP DP  RH WIND       PRES   REMARKS
BATTLE CREEK   CLOUDY    30  23  75 CALM      30.26S
6HR MIN TEMP:  29; 6HR MAX TEMP:  33;

BENTON HARBOR  CLOUDY    32  26  78 S5        30.27R WCI  27
6HR MIN TEMP:  31; 6HR MAX TEMP:  32;

COLDWATER*     CLOUDY    30  25  83 CALM      30.26S
6HR MIN TEMP:  30; 6HR MAX TEMP:  32;

HILLSDALE*     MOCLDY    27  22  79 CALM      30.25R
6HR MIN TEMP:  27; 6HR MAX TEMP:  30;

HOLLAND        LGT SNOW  31  27  85 SE6       30.27S FOG     WCI  25
6HR MIN TEMP:  30; 6HR MAX TEMP:  31; 6HR PCP: TRACE;

GRAND RAPIDS   LGT SNOW  30  25  81 SW3       30.26S
6HR MIN TEMP:  30; 6HR MAX TEMP:  33; 6HR PCP: TRACE;

KALAMAZOO      CLOUDY    30  27  88 CALM      30.26F FOG
6HR MIN TEMP:  30; 6HR MAX TEMP:  31; 6HR PCP: TRACE;

STURGIS*       CLOUDY    28  27  93 CALM      30.26S FOG
THREE RIVERS*  CLOUDY    30  28  92 CALM      30.27S FOG
6HR MIN TEMP:  28; 6HR MAX TEMP:  31;


$$
OHZ001>008-015>018-024>025-210100-
NORTHWEST OHIO

CITY           SKY/WX    TMP DP  RH WIND       PRES   REMARKS
WAUSEON*       CLOUDY    30  23  74 CALM      30.28R
DEFIANCE       CLOUDY    31  23  72 CALM      30.29R
6HR MIN TEMP:  31; 6HR MAX TEMP:  33;

FINDLAY        CLOUDY    31  24  75 S5        30.27R WCI  26
6HR MIN TEMP:  31; 6HR MAX TEMP:  33;

TOLEDO EXPRESS CLOUDY    30  22  72 CALM      30.28R
6HR MIN TEMP:  30; 6HR MAX TEMP:  31;

TOLEDO METCALF CLOUDY    31  23  72 S3        30.29S
6HR MIN TEMP:  31; 6HR MAX TEMP:  32;

LIMA           CLOUDY    32  24  72 SW5       30.27R WCI  27
6HR MIN TEMP:  32; 6HR MAX TEMP:  33;


$$
AND FOR LAKE MICHIGAN COASTAL AND OPEN LAKE BUOY OBSERVATIONS

STATION/POSITION TEMP    WIND        PRES    VSBY  WAVE
                 AIR SEA DIR/SP/G                  HT/PER
                 (F)     (DEG/KT/KT) (MB)    (MI)  (FT/S)
CALUMET HARBOR    33     180/  2/  4 1023.7F
SAINT JOSEPH      34     190/  9/ 12 1025.1R

$$
&&


USA.gov is the U.S. government's official web portal to all federal, state and local government web resources and services.